�������l�o���
Date,Time,MP-1(��Sv/h),MP-2(��Sv/h),MP-3(��Sv/h),MP-4(��Sv/h),MP-5(��Sv/h),MP-6(��Sv/h),MP-7(��Sv/h),MP-8(��Sv/h),����,����(m/s),���J
2021/05/15,00:00,0.652,0.964,0.600,1.184,0.838,0.376,0.661,0.617,�k��,1.7,��
2021/05/15,00:10,0.652,0.963,0.603,1.183,0.841,0.377,0.661,0.617,�k��,2.3,��
2021/05/15,00:20,0.651,0.964,0.600,1.184,0.841,0.377,0.660,0.615,�k��,2.6,��
2021/05/15,00:30,0.650,0.964,0.600,1.184,0.840,0.377,0.661,0.615,�k��,2.3,��
2021/05/15,00:40,0.649,0.964,0.601,1.183,0.842,0.375,0.660,0.617,���k��,2.6,��
2021/05/15,00:50,0.648,0.962,0.601,1.183,0.840,0.377,0.660,0.616,���k��,1.9,��
2021/05/15,01:00,0.651,0.965,0.602,1.183,0.840,0.378,0.661,0.617,��,1.9,��
2021/05/15,01:10,0.652,0.962,0.602,1.185,0.839,0.376,0.662,0.615,���쐼,1.9,��
2021/05/15,01:20,0.651,0.964,0.600,1.182,0.839,0.378,0.661,0.616,�쐼,2.2,��
2021/05/15,01:30,0.652,0.964,0.602,1.182,0.840,0.376,0.663,0.616,��쐼,1.5,��
2021/05/15,01:40,0.652,0.962,0.601,1.184,0.839,0.379,0.661,0.617,�쐼,1.7,��
2021/05/15,01:50,0.650,0.964,0.601,1.186,0.840,0.377,0.662,0.617,��쐼,2.2,��
2021/05/15,02:00,0.651,0.964,0.601,1.184,0.839,0.377,0.660,0.617,��쐼,2.3,��
2021/05/15,02:10,0.651,0.963,0.600,1.183,0.841,0.377,0.659,0.614,�쐼,2.0,��
2021/05/15,02:20,0.651,0.961,0.602,1.182,0.841,0.377,0.662,0.614,�쐼,2.0,��
2021/05/15,02:30,0.652,0.964,0.602,1.185,0.840,0.377,0.661,0.616,���쐼,1.2,��
2021/05/15,02:40,0.651,0.963,0.600,1.184,0.838,0.378,0.661,0.616,�쐼,1.4,��
2021/05/15,02:50,0.650,0.963,0.601,1.184,0.838,0.377,0.661,0.615,���쐼,2.0,��
2021/05/15,03:00,0.649,0.962,0.599,1.182,0.837,0.376,0.660,0.615,���쐼,2.0,��
2021/05/15,03:10,0.650,0.963,0.600,1.183,0.837,0.378,0.661,0.616,���쐼,1.7,��
2021/05/15,03:20,0.648,0.962,0.600,1.181,0.838,0.377,0.660,0.616,�쐼,1.7,��
2021/05/15,03:30,0.651,0.959,0.601,1.183,0.838,0.377,0.661,0.617,���쐼,2.0,��
2021/05/15,03:40,0.651,0.960,0.601,1.183,0.839,0.377,0.660,0.615,���쐼,1.5,��
2021/05/15,03:50,0.650,0.961,0.600,1.184,0.838,0.376,0.659,0.615,���쐼,1.1,��
2021/05/15,04:00,0.650,0.962,0.600,1.183,0.838,0.377,0.660,0.617,���쐼,1.7,��
2021/05/15,04:10,0.650,0.961,0.599,1.181,0.839,0.375,0.660,0.615,��,1.5,��
2021/05/15,04:20,0.648,0.961,0.601,1.184,0.837,0.376,0.661,0.616,���k��,1.9,��
2021/05/15,04:30,0.650,0.961,0.598,1.182,0.838,0.376,0.661,0.615,�k��,1.7,��
2021/05/15,04:40,0.649,0.960,0.601,1.180,0.839,0.375,0.660,0.616,�k�k��,2.5,��
2021/05/15,04:50,0.649,0.960,0.599,1.180,0.837,0.374,0.661,0.616,�k�k��,2.6,��
2021/05/15,05:00,0.649,0.961,0.599,1.180,0.837,0.376,0.660,0.615,�k�k��,2.5,��
2021/05/15,05:10,0.650,0.962,0.599,1.183,0.838,0.376,0.659,0.615,�k�k��,2.5,��
2021/05/15,05:20,0.648,0.959,0.599,1.182,0.837,0.377,0.659,0.615,�k��,2.5,��
2021/05/15,05:30,0.649,0.960,0.599,1.181,0.839,0.376,0.661,0.615,�k��,2.3,��
2021/05/15,05:40,0.650,0.960,0.601,1.181,0.839,0.377,0.661,0.615,�k�k��,1.9,��
2021/05/15,05:50,0.649,0.961,0.599,1.182,0.836,0.375,0.661,0.616,�k��,1.7,��
2021/05/15,06:00,0.650,0.961,0.600,1.182,0.838,0.375,0.661,0.616,�k�k��,1.9,��
2021/05/15,06:10,0.651,0.960,0.599,1.182,0.838,0.375,0.660,0.616,�k�k��,2.2,��
2021/05/15,06:20,0.650,0.960,0.600,1.182,0.838,0.376,0.660,0.616,�k�k��,2.0,��
2021/05/15,06:30,0.651,0.962,0.600,1.183,0.840,0.376,0.663,0.616,�k�k��,2.2,��
2021/05/15,06:40,0.649,0.963,0.599,1.184,0.837,0.377,0.662,0.615,�k�k��,2.3,��
2021/05/15,06:50,0.653,0.962,0.601,1.182,0.835,0.377,0.662,0.616,�k�k��,3.2,��
2021/05/15,07:00,0.652,0.958,0.602,1.184,0.837,0.376,0.661,0.617,�k,2.6,��
2021/05/15,07:10,0.652,0.961,0.601,1.184,0.840,0.375,0.663,0.617,�k,3.2,��
2021/05/15,07:20,0.651,0.960,0.601,1.187,0.839,0.376,0.661,0.617,�k,3.0,��
2021/05/15,07:30,0.651,0.960,0.604,1.184,0.839,0.375,0.663,0.617,�k�k��,1.7,��
2021/05/15,07:40,0.653,0.960,0.600,1.186,0.840,0.375,0.660,0.618,�k,2.3,��
2021/05/15,07:50,0.650,0.962,0.602,1.185,0.841,0.374,0.662,0.617,�k,2.6,��
2021/05/15,08:00,0.651,0.960,0.600,1.184,0.840,0.375,0.662,0.615,�k,2.5,��
2021/05/15,08:10,0.651,0.961,0.601,1.183,0.839,0.377,0.661,0.614,�k,2.6,��
2021/05/15,08:20,0.649,0.960,0.601,1.187,0.839,0.374,0.661,0.615,�k�k��,2.9,��
2021/05/15,08:30,0.651,0.960,0.600,1.185,0.840,0.376,0.660,0.615,�k��,2.8,��
2021/05/15,08:40,0.650,0.958,0.600,1.181,0.839,0.375,0.658,0.616,�k��,2.3,��
2021/05/15,08:50,0.650,0.959,0.601,1.186,0.838,0.374,0.660,0.614,�k��,1.9,��
2021/05/15,09:00,0.650,0.960,0.599,1.183,0.840,0.375,0.659,0.615,���k��,2.2,��
2021/05/15,09:10,0.648,0.958,0.599,1.183,0.837,0.375,0.658,0.614,���k��,2.3,��
2021/05/15,09:20,0.649,0.958,0.599,1.184,0.839,0.375,0.658,0.614,�k��,2.6,��
2021/05/15,09:30,0.648,0.958,0.600,1.185,0.839,0.377,0.659,0.615,�k��,2.6,��
2021/05/15,09:40,0.649,0.961,0.598,1.183,0.837,0.374,0.658,0.614,�k��,2.5,��
2021/05/15,09:50,0.649,0.959,0.600,1.185,0.839,0.375,0.661,0.613,�k��,2.6,��
2021/05/15,10:00,0.649,0.962,0.599,1.186,0.837,0.376,0.660,0.614,�k��,3.3,��
2021/05/15,10:10,0.648,0.960,0.599,1.186,0.838,0.376,0.660,0.615,���k��,3.6,��
2021/05/15,10:20,0.650,0.959,0.599,1.187,0.838,0.375,0.659,0.615,�k��,3.4,��
2021/05/15,10:30,0.649,0.959,0.599,1.186,0.840,0.375,0.660,0.613,���k��,3.6,��
2021/05/15,10:40,0.647,0.962,0.600,1.188,0.839,0.375,0.660,0.613,��,3.6,��
2021/05/15,10:50,0.650,0.959,0.600,1.182,0.840,0.376,0.661,0.615,���k��,3.3,��
2021/05/15,11:00,0.649,0.963,0.599,1.184,0.842,0.376,0.658,0.617,��,3.0,��
2021/05/15,11:10,0.649,0.960,0.599,1.183,0.839,0.375,0.661,0.615,��,2.9,��
2021/05/15,11:20,0.647,0.960,0.599,1.181,0.840,0.375,0.662,0.614,��,2.9,��
2021/05/15,11:30,0.651,0.962,0.600,1.182,0.841,0.375,0.660,0.614,��,3.0,��
2021/05/15,11:40,0.650,0.962,0.601,1.183,0.841,0.376,0.660,0.615,���쓌,3.2,��
2021/05/15,11:50,0.651,0.962,0.600,1.182,0.841,0.377,0.661,0.615,���쓌,2.9,��
2021/05/15,12:00,0.649,0.964,0.600,1.181,0.842,0.376,0.659,0.612,�쓌,3.4,��
2021/05/15,12:10,0.651,0.962,0.600,1.183,0.840,0.376,0.661,0.615,�쓌,3.5,��
2021/05/15,12:20,0.649,0.965,0.600,1.184,0.841,0.375,0.660,0.614,�쓌,3.0,��
2021/05/15,12:30,0.651,0.965,0.600,1.182,0.841,0.376,0.660,0.616,���쓌,2.9,��
2021/05/15,12:40,0.651,0.965,0.600,1.181,0.839,0.375,0.659,0.613,�쓌,3.7,��
2021/05/15,12:50,0.650,0.963,0.600,1.185,0.841,0.376,0.661,0.614,���쓌,3.9,��
2021/05/15,13:00,0.649,0.962,0.600,1.182,0.842,0.377,0.660,0.615,���쓌,4.1,��
2021/05/15,13:10,0.650,0.961,0.601,1.183,0.840,0.376,0.660,0.615,�쓌,4.3,��
2021/05/15,13:20,0.649,0.963,0.600,1.183,0.841,0.377,0.660,0.615,��쓌,4.7,��
2021/05/15,13:30,0.651,0.962,0.601,1.183,0.840,0.376,0.662,0.613,��쓌,4.8,��
2021/05/15,13:40,0.652,0.964,0.600,1.183,0.841,0.376,0.661,0.615,��쓌,6.3,��
2021/05/15,13:50,0.652,0.962,0.601,1.180,0.841,0.377,0.660,0.614,��쓌,6.5,��
2021/05/15,14:00,0.652,0.962,0.601,1.182,0.841,0.376,0.661,0.614,��쓌,6.3,��
2021/05/15,14:10,0.653,0.962,0.599,1.184,0.842,0.377,0.661,0.615,��쓌,6.9,��
2021/05/15,14:20,0.654,0.961,0.600,1.182,0.842,0.376,0.660,0.614,��쓌,7.1,��
2021/05/15,14:30,0.655,0.964,0.599,1.182,0.842,0.376,0.662,0.615,��쓌,7.9,��
2021/05/15,14:40,0.654,0.963,0.602,1.181,0.842,0.377,0.660,0.615,��쓌,7.0,��
2021/05/15,14:50,0.655,0.965,0.602,1.181,0.842,0.377,0.661,0.615,��쓌,8.5,��
2021/05/15,15:00,0.653,0.966,0.599,1.182,0.840,0.377,0.662,0.615,��쓌,7.9,��
2021/05/15,15:10,0.653,0.965,0.600,1.183,0.841,0.376,0.661,0.613,��쓌,7.7,��
2021/05/15,15:20,0.653,0.964,0.600,1.183,0.841,0.377,0.659,0.614,��쓌,8.0,��
2021/05/15,15:30,0.653,0.966,0.601,1.184,0.840,0.376,0.660,0.615,��쓌,7.5,��
2021/05/15,15:40,0.654,0.964,0.602,1.183,0.841,0.376,0.659,0.614,��쓌,7.3,��
2021/05/15,15:50,0.654,0.964,0.601,1.184,0.840,0.376,0.659,0.614,��,7.1,��
2021/05/15,16:00,0.654,0.965,0.599,1.184,0.843,0.378,0.660,0.616,��쓌,8.1,��
2021/05/15,16:10,0.654,0.966,0.600,1.183,0.841,0.376,0.659,0.616,��쓌,7.6,��
2021/05/15,16:20,0.653,0.963,0.599,1.182,0.841,0.376,0.660,0.614,��쓌,8.1,��
2021/05/15,16:30,0.654,0.964,0.599,1.185,0.842,0.376,0.660,0.614,��쓌,7.1,��
2021/05/15,16:40,0.653,0.965,0.599,1.186,0.841,0.377,0.660,0.614,��,7.8,��
2021/05/15,16:50,0.652,0.965,0.599,1.187,0.840,0.375,0.659,0.614,��,7.7,��
2021/05/15,17:00,0.654,0.966,0.598,1.184,0.839,0.377,0.660,0.614,��,7.2,��
2021/05/15,17:10,0.652,0.964,0.600,1.188,0.843,0.377,0.659,0.614,��,6.0,��
2021/05/15,17:20,0.651,0.964,0.601,1.186,0.840,0.376,0.661,0.615,��,6.0,��
2021/05/15,17:30,0.653,0.964,0.600,1.186,0.841,0.376,0.661,0.615,��,5.9,��
2021/05/15,17:40,0.653,0.965,0.599,1.186,0.840,0.375,0.661,0.615,��쓌,5.5,��
2021/05/15,17:50,0.653,0.964,0.601,1.188,0.841,0.374,0.659,0.616,��,5.2,��
2021/05/15,18:00,0.654,0.965,0.602,1.185,0.841,0.376,0.661,0.614,��쓌,6.6,��
2021/05/15,18:10,0.653,0.964,0.601,1.185,0.839,0.376,0.659,0.614,��,6.5,��
2021/05/15,18:20,0.653,0.967,0.601,1.185,0.840,0.376,0.661,0.614,��쓌,8.1,��
2021/05/15,18:30,0.653,0.965,0.602,1.184,0.840,0.376,0.659,0.616,��쓌,8.0,��
2021/05/15,18:40,0.653,0.964,0.603,1.189,0.841,0.377,0.661,0.617,��쓌,8.6,��
2021/05/15,18:50,0.653,0.965,0.601,1.187,0.841,0.377,0.661,0.617,��,7.1,��
2021/05/15,19:00,0.654,0.964,0.602,1.187,0.840,0.376,0.659,0.617,��쓌,8.4,��
2021/05/15,19:10,0.653,0.965,0.603,1.187,0.839,0.377,0.660,0.616,��쓌,6.4,��
2021/05/15,19:20,0.654,0.963,0.603,1.186,0.840,0.376,0.660,0.615,��쓌,7.4,��
2021/05/15,19:30,0.653,0.965,0.604,1.187,0.840,0.376,0.660,0.616,��쓌,8.7,��
2021/05/15,19:40,0.651,0.963,0.601,1.187,0.838,0.377,0.660,0.616,��,7.0,��
2021/05/15,19:50,0.653,0.967,0.602,1.187,0.838,0.375,0.661,0.617,��,7.7,��
2021/05/15,20:00,0.653,0.965,0.602,1.185,0.840,0.376,0.660,0.617,��,8.5,��
2021/05/15,20:10,0.652,0.966,0.601,1.186,0.840,0.378,0.659,0.618,��,6.5,��
2021/05/15,20:20,0.654,0.963,0.603,1.185,0.841,0.376,0.660,0.616,��,5.9,��
2021/05/15,20:30,0.655,0.965,0.602,1.186,0.841,0.376,0.661,0.616,��,6.5,��
2021/05/15,20:40,0.654,0.967,0.602,1.188,0.840,0.376,0.660,0.618,��,6.4,��
2021/05/15,20:50,0.656,0.964,0.603,1.186,0.841,0.377,0.659,0.615,��,7.1,��
2021/05/15,21:00,0.654,0.965,0.602,1.188,0.841,0.375,0.661,0.616,��,6.3,��
2021/05/15,21:10,0.651,0.965,0.602,1.188,0.841,0.376,0.661,0.617,��,7.2,��
2021/05/15,21:20,0.651,0.967,0.603,1.186,0.839,0.378,0.660,0.617,��,6.3,��
2021/05/15,21:30,0.652,0.964,0.602,1.186,0.839,0.376,0.659,0.617,��,6.8,��
2021/05/15,21:40,0.653,0.965,0.605,1.187,0.841,0.375,0.661,0.617,��,6.2,��
2021/05/15,21:50,0.652,0.965,0.603,1.186,0.838,0.375,0.661,0.618,��,7.4,��
2021/05/15,22:00,0.653,0.966,0.601,1.187,0.839,0.377,0.660,0.618,��,7.8,��
2021/05/15,22:10,0.651,0.965,0.602,1.187,0.840,0.376,0.660,0.616,��,7.3,��
2021/05/15,22:20,0.652,0.964,0.604,1.184,0.840,0.376,0.661,0.617,��,7.9,��
2021/05/15,22:30,0.654,0.967,0.601,1.186,0.839,0.375,0.659,0.617,��,8.4,��
2021/05/15,22:40,0.654,0.964,0.601,1.185,0.840,0.378,0.661,0.615,��,7.3,��
2021/05/15,22:50,0.653,0.964,0.604,1.185,0.840,0.377,0.659,0.616,��,7.9,��
2021/05/15,23:00,0.653,0.965,0.602,1.185,0.841,0.376,0.661,0.617,��,8.3,��
2021/05/15,23:10,0.652,0.965,0.602,1.188,0.840,0.376,0.660,0.616,��,8.3,��
2021/05/15,23:20,0.651,0.965,0.603,1.183,0.839,0.376,0.659,0.617,��,8.5,��
2021/05/15,23:30,0.653,0.966,0.601,1.189,0.838,0.376,0.660,0.616,��,9.0,��
2021/05/15,23:40,0.653,0.966,0.601,1.186,0.837,0.376,0.660,0.618,��,9.2,��
2021/05/15,23:50,0.653,0.963,0.600,1.185,0.839,0.376,0.660,0.617,��,9.3,��
